Location: Marne
(34.0056°N, 117.9064°W)
Time: 02:23:51
(UTC+00:00)

Cosmos 2058 Rocket - Pass Details

Date: 18 January 2020
Orbit: 610 x 639 km, 82.5° (Epoch: 19 February)

Event Time Altitude Azimuth Distance (km) Brightness Sun altitude
Rises 01:27:33 0° 354° (N) 2,878 6.3 -4.7°
Reaches altitude 10° 01:29:47 10° 355° (N) 1,970 5.5 -5.1°
Maximum altitude 01:34:08 83° 83° (E) 621 3.0 -6.0°
Drops below altitude 10° 01:38:29 10° 172° (S) 1,965 5.8 -6.8°
Sets 01:40:42 0° 173° (S) 2,869 6.7 -7.3°
